User: anonymous   Login
Location: Unspecified
(0.0000°N, 0.0000°E)
Time: 18:10:18
(UTC+01:00)
Language:

Cosmos 1733 Rocket - Orbit

View from above orbital plane
View from above orbital plane
View from above satellite
View from above satellite

Ground track
Ground track

The orbit data is extracted from the following two-line orbital elements,

1 16612U 86018B   17016.74999652  .00000075  00000-0  60811-5 0  9998
2 16612  82.5162  78.5185 0016255 295.0763 204.5802 14.84127222568998
Epoch (UTC): 16 January 2017 17:59:59
Eccentricity: 0.0016255
inclination: 82.5162°
perigee height: 605 km
apogee height: 628 km
right ascension of ascending node: 78.5185°
argument of perigee: 295.0763°
revolutions per day: 14.84127222
mean anomaly at epoch: 204.5802°
orbit number at epoch: 56899

The dashed part of the orbit path shows where the satellite is in the earth's shadow,  

DLR